ASA9790 KBOI-KSLC

Flight info

Callsign ASA9790
Flight time 0h 43m
Altitude 33000
Route ROARR BYI SKEES6
Aircraft B739/M-SDE2E3FGHIRWXY/LB1

Departure

Time 2026-05-08 06:04
Airport Boise Air Terminal/Gowen Field (KBOI)

Arrival

Time 2026-05-08 06:48
Airport Salt Lake City International Airport (KSLC)
Time Latitude Longitude Altitude Speed Heading
2026-05-08 05:42 43.56774 -116.22413 2880 ft 0 kts 115°
2026-05-08 05:56 43.56781 -116.22432 2880 ft 2 kts 115°
2026-05-08 05:56 43.56792 -116.22453 2880 ft 4 kts 181°
2026-05-08 05:57 43.56815 -116.22443 2880 ft 4 kts 205°
2026-05-08 05:57 43.56822 -116.22439 2880 ft 0 kts 205°
2026-05-08 05:59 43.56797 -116.22455 2880 ft 9 kts 205°
2026-05-08 05:59 43.56736 -116.22470 2880 ft 10 kts 154°
2026-05-08 05:59 43.56692 -116.22373 2880 ft 16 kts 114°
2026-05-08 06:00 43.56645 -116.22238 2880 ft 15 kts 115°
2026-05-08 06:00 43.56601 -116.22107 2880 ft 15 kts 115°
2026-05-08 06:00 43.56559 -116.21982 2880 ft 14 kts 115°
2026-05-08 06:00 43.56518 -116.21862 2880 ft 13 kts 115°
2026-05-08 06:01 43.56479 -116.21748 2880 ft 13 kts 115°
2026-05-08 06:01 43.56442 -116.21637 2880 ft 13 kts 115°
2026-05-08 06:01 43.56405 -116.21529 2880 ft 12 kts 115°
2026-05-08 06:01 43.56368 -116.21424 2881 ft 12 kts 112°
2026-05-08 06:02 43.56333 -116.21321 2881 ft 12 kts 115°
2026-05-08 06:02 43.56299 -116.21220 2881 ft 12 kts 115°
2026-05-08 06:02 43.56260 -116.21103 2881 ft 16 kts 115°
2026-05-08 06:02 43.56201 -116.20934 2881 ft 22 kts 116°
2026-05-08 06:03 43.56116 -116.20884 2881 ft 14 kts 202°
2026-05-08 06:03 43.56026 -116.20941 2880 ft 16 kts 206°
2026-05-08 06:03 43.55920 -116.21022 2880 ft 19 kts 237°
2026-05-08 06:03 43.55965 -116.21217 2880 ft 36 kts 295°
2026-05-08 06:04 43.56173 -116.21829 2879 ft 104 kts 295°
2026-05-08 06:04 43.56556 -116.22953 2884 ft 155 kts 295°
2026-05-08 06:04 43.57061 -116.24433 3066 ft 181 kts 295°
2026-05-08 06:04 43.57619 -116.26065 3520 ft 195 kts 295°
2026-05-08 06:05 43.58171 -116.27779 4158 ft 197 kts 290°
2026-05-08 06:05 43.58293 -116.29741 4345 ft 219 kts 257°
2026-05-08 06:05 43.57523 -116.31640 4528 ft 241 kts 224°
2026-05-08 06:05 43.56023 -116.32807 4725 ft 261 kts 194°
2026-05-08 06:06 43.54168 -116.32808 5046 ft 277 kts 164°
2026-05-08 06:06 43.52469 -116.31554 5721 ft 280 kts 136°
2026-05-08 06:06 43.51324 -116.29397 6468 ft 281 kts 115°
2026-05-08 06:06 43.50586 -116.26887 7147 ft 286 kts 107°
2026-05-08 06:07 43.49970 -116.24250 7864 ft 292 kts 105°
2026-05-08 06:07 43.49373 -116.21553 8573 ft 298 kts 105°
2026-05-08 06:07 43.48760 -116.18786 9278 ft 305 kts 105°
2026-05-08 06:07 43.48127 -116.15975 10046 ft 311 kts 106°
2026-05-08 06:08 43.47473 -116.13115 10788 ft 314 kts 106°
2026-05-08 06:08 43.46807 -116.10244 11595 ft 316 kts 106°
2026-05-08 06:08 43.46131 -116.07347 12405 ft 320 kts 107°
2026-05-08 06:08 43.45442 -116.04421 13229 ft 323 kts 107°
2026-05-08 06:09 43.44743 -116.01460 14041 ft 327 kts 107°
2026-05-08 06:09 43.44035 -115.98475 14808 ft 330 kts 107°
2026-05-08 06:09 43.43317 -115.95452 15593 ft 334 kts 107°
2026-05-08 06:09 43.42592 -115.92409 16368 ft 337 kts 107°
2026-05-08 06:10 43.42108 -115.90377 16885 ft 340 kts 107°
2026-05-08 06:10 43.41366 -115.87270 17649 ft 343 kts 107°
2026-05-08 06:10 43.40616 -115.84132 18405 ft 347 kts 107°
2026-05-08 06:10 43.39855 -115.80955 19066 ft 351 kts 108°
2026-05-08 06:11 43.39089 -115.77758 19736 ft 354 kts 108°
2026-05-08 06:11 43.38312 -115.74523 20449 ft 358 kts 108°
2026-05-08 06:11 43.37528 -115.71263 21131 ft 361 kts 108°
2026-05-08 06:11 43.36738 -115.67983 21839 ft 363 kts 108°
2026-05-08 06:12 43.35939 -115.64670 22537 ft 367 kts 108°
2026-05-08 06:12 43.35133 -115.61330 23210 ft 370 kts 108°
2026-05-08 06:12 43.34317 -115.57955 23817 ft 374 kts 108°
2026-05-08 06:12 43.33493 -115.54554 24350 ft 378 kts 108°
2026-05-08 06:13 43.32655 -115.51100 24830 ft 383 kts 108°
2026-05-08 06:13 43.31807 -115.47602 25340 ft 388 kts 108°
2026-05-08 06:13 43.30946 -115.44062 25861 ft 392 kts 108°
2026-05-08 06:13 43.30076 -115.40492 26379 ft 397 kts 107°
2026-05-08 06:14 43.29130 -115.36916 26871 ft 402 kts 113°
2026-05-08 06:14 43.27802 -115.33576 27376 ft 407 kts 121°
2026-05-08 06:14 43.26279 -115.30279 27860 ft 411 kts 122°
2026-05-08 06:14 43.24712 -115.26971 28342 ft 416 kts 123°
2026-05-08 06:15 43.23125 -115.23636 28822 ft 420 kts 122°
2026-05-08 06:15 43.21521 -115.20250 29283 ft 426 kts 122°
2026-05-08 06:15 43.19904 -115.16813 29656 ft 433 kts 122°
2026-05-08 06:15 43.18272 -115.13328 30105 ft 437 kts 122°
2026-05-08 06:16 43.16630 -115.09812 30545 ft 439 kts 121°
2026-05-08 06:16 43.14981 -115.06278 31004 ft 441 kts 121°
2026-05-08 06:16 43.13327 -115.02733 31444 ft 443 kts 121°
2026-05-08 06:16 43.11663 -114.99169 31839 ft 445 kts 121°
2026-05-08 06:17 43.08290 -114.91958 32516 ft 454 kts 121°
2026-05-08 06:17 43.06581 -114.88314 32892 ft 456 kts 121°
2026-05-08 06:17 43.04861 -114.84648 33031 ft 461 kts 121°
2026-05-08 06:18 43.01419 -114.77333 33032 ft 457 kts 121°
2026-05-08 06:18 42.98001 -114.70090 33044 ft 453 kts 121°
2026-05-08 06:19 42.94578 -114.62847 33048 ft 455 kts 121°
2026-05-08 06:19 42.91138 -114.55585 33031 ft 456 kts 121°
2026-05-08 06:20 42.87678 -114.48302 33023 ft 458 kts 121°
2026-05-08 06:20 42.84211 -114.41022 33029 ft 458 kts 121°
2026-05-08 06:21 42.80732 -114.33733 32959 ft 458 kts 121°
2026-05-08 06:21 42.77255 -114.26467 32958 ft 458 kts 121°
2026-05-08 06:22 42.73790 -114.19245 32948 ft 456 kts 121°
2026-05-08 06:22 42.70320 -114.12027 32969 ft 455 kts 121°
2026-05-08 06:23 42.66857 -114.04842 32982 ft 454 kts 121°
2026-05-08 06:23 42.63392 -113.97669 33004 ft 453 kts 121°
2026-05-08 06:24 42.59950 -113.90558 33024 ft 453 kts 121°
2026-05-08 06:24 42.56188 -113.83697 33032 ft 455 kts 133°
2026-05-08 06:25 42.51626 -113.77717 33033 ft 457 kts 136°
2026-05-08 06:25 42.47016 -113.71780 33028 ft 458 kts 135°
2026-05-08 06:26 42.42462 -113.65755 33014 ft 458 kts 134°
2026-05-08 06:26 42.37918 -113.59684 32987 ft 459 kts 134°
2026-05-08 06:27 42.33371 -113.53622 32971 ft 460 kts 134°
2026-05-08 06:27 42.28812 -113.47555 32945 ft 460 kts 134°
2026-05-08 06:28 42.26526 -113.44532 32826 ft 460 kts 134°
2026-05-08 06:28 42.24248 -113.41523 32559 ft 458 kts 134°
2026-05-08 06:28 42.21979 -113.38526 32304 ft 453 kts 134°
2026-05-08 06:28 42.19740 -113.35568 32044 ft 448 kts 134°
2026-05-08 06:29 42.17522 -113.32641 31785 ft 446 kts 134°
2026-05-08 06:29 42.15312 -113.29726 31480 ft 442 kts 134°
2026-05-08 06:29 42.13149 -113.26875 31079 ft 439 kts 134°
2026-05-08 06:29 42.10975 -113.24014 30667 ft 436 kts 134°
2026-05-08 06:30 42.08812 -113.21168 30248 ft 433 kts 134°
2026-05-08 06:30 42.06661 -113.18343 29804 ft 431 kts 135°
2026-05-08 06:30 42.04519 -113.15532 29335 ft 428 kts 135°
2026-05-08 06:30 42.02396 -113.12747 28882 ft 425 kts 135°
2026-05-08 06:31 42.00288 -113.09987 28501 ft 420 kts 135°
2026-05-08 06:31 41.98202 -113.07258 28034 ft 418 kts 135°
2026-05-08 06:31 41.96128 -113.04547 27607 ft 414 kts 135°
2026-05-08 06:31 41.94068 -113.01857 27183 ft 411 kts 135°
2026-05-08 06:32 41.92024 -112.99190 26773 ft 408 kts 135°
2026-05-08 06:32 41.89989 -112.96537 26366 ft 406 kts 135°
2026-05-08 06:32 41.87969 -112.93905 25951 ft 403 kts 135°
2026-05-08 06:32 41.85966 -112.91299 25535 ft 400 kts 135°
2026-05-08 06:33 41.83972 -112.88708 25139 ft 398 kts 135°
2026-05-08 06:33 41.82015 -112.86165 24750 ft 395 kts 135°
2026-05-08 06:33 41.80043 -112.83606 24344 ft 393 kts 135°
2026-05-08 06:33 41.78057 -112.81031 23945 ft 391 kts 136°
2026-05-08 06:34 41.76135 -112.78540 23541 ft 390 kts 136°
2026-05-08 06:34 41.74186 -112.76018 23068 ft 388 kts 135°
2026-05-08 06:34 41.72251 -112.73514 22627 ft 386 kts 136°
2026-05-08 06:34 41.70325 -112.71027 22202 ft 383 kts 136°
2026-05-08 06:35 41.68420 -112.68568 21845 ft 378 kts 136°
2026-05-08 06:35 41.66544 -112.66150 21582 ft 372 kts 136°
2026-05-08 06:35 41.64688 -112.63760 21236 ft 368 kts 136°
2026-05-08 06:35 41.62848 -112.61392 20859 ft 366 kts 136°
2026-05-08 06:36 41.61019 -112.59040 20456 ft 365 kts 136°
2026-05-08 06:36 41.59197 -112.56698 20071 ft 363 kts 136°
2026-05-08 06:36 41.57377 -112.54359 19673 ft 363 kts 136°
2026-05-08 06:36 41.55558 -112.52025 19243 ft 362 kts 136°
2026-05-08 06:37 41.53762 -112.49672 18878 ft 363 kts 135°
2026-05-08 06:37 41.51927 -112.47346 18457 ft 363 kts 140°
2026-05-08 06:37 41.50010 -112.45174 18048 ft 362 kts 141°
2026-05-08 06:37 41.48100 -112.43010 17571 ft 361 kts 140°
2026-05-08 06:38 41.46201 -112.40818 17152 ft 358 kts 140°
2026-05-08 06:38 41.44319 -112.38684 16735 ft 351 kts 146°
2026-05-08 06:38 41.42264 -112.37099 16354 ft 342 kts 156°
2026-05-08 06:38 41.40107 -112.35734 15972 ft 336 kts 158°
2026-05-08 06:39 41.38030 -112.34443 15596 ft 331 kts 158°
2026-05-08 06:39 41.35957 -112.33149 15239 ft 327 kts 158°
2026-05-08 06:39 41.33919 -112.31821 14711 ft 329 kts 152°
2026-05-08 06:39 41.32225 -112.29709 14188 ft 335 kts 131°
2026-05-08 06:40 41.30883 -112.27175 13711 ft 336 kts 123°
2026-05-08 06:40 41.29723 -112.24504 13306 ft 332 kts 120°
2026-05-08 06:40 41.28611 -112.21841 12921 ft 327 kts 120°
2026-05-08 06:40 41.27505 -112.19226 12561 ft 322 kts 120°
2026-05-08 06:41 41.26399 -112.16667 12215 ft 317 kts 121°
2026-05-08 06:41 41.25292 -112.14144 11870 ft 314 kts 121°
2026-05-08 06:41 41.24183 -112.11636 11544 ft 315 kts 121°
2026-05-08 06:41 41.23038 -112.09134 11210 ft 320 kts 127°
2026-05-08 06:42 41.21377 -112.07192 10874 ft 318 kts 154°
2026-05-08 06:42 41.19334 -112.06083 10606 ft 316 kts 164°
2026-05-08 06:42 41.17252 -112.05138 10285 ft 317 kts 164°
2026-05-08 06:42 41.15158 -112.04182 9987 ft 318 kts 164°
2026-05-08 06:43 41.13057 -112.03529 9961 ft 301 kts 177°
2026-05-08 06:43 41.10968 -112.03326 9444 ft 305 kts 180°
2026-05-08 06:43 41.08875 -112.03177 9093 ft 299 kts 179°
2026-05-08 06:43 41.06829 -112.02973 8804 ft 291 kts 178°
2026-05-08 06:44 41.04844 -112.02744 8550 ft 282 kts 177°
2026-05-08 06:44 41.02930 -112.02516 8417 ft 268 kts 177°
2026-05-08 06:44 41.01088 -112.02298 8090 ft 264 kts 176°
2026-05-08 06:44 40.99270 -112.02087 7761 ft 261 kts 176°
2026-05-08 06:45 40.97470 -112.01878 7431 ft 258 kts 176°
2026-05-08 06:45 40.95712 -112.01673 7096 ft 256 kts 176°
2026-05-08 06:45 40.93944 -112.01466 6781 ft 253 kts 176°
2026-05-08 06:45 40.92199 -112.01263 6522 ft 250 kts 175°
2026-05-08 06:46 40.90482 -112.01063 6242 ft 244 kts 174°
2026-05-08 06:46 40.88823 -112.00869 5934 ft 233 kts 174°
2026-05-08 06:46 40.87269 -112.00687 5611 ft 214 kts 174°
2026-05-08 06:46 40.85841 -112.00518 5255 ft 199 kts 175°
2026-05-08 06:47 40.84512 -112.00372 4982 ft 182 kts 175°
2026-05-08 06:47 40.83344 -112.00233 4780 ft 157 kts 175°
2026-05-08 06:47 40.82287 -112.00107 4536 ft 151 kts 174°
2026-05-08 06:47 40.81244 -111.99990 4372 ft 152 kts 174°
2026-05-08 06:48 40.80231 -111.99870 4234 ft 139 kts 174°
2026-05-08 06:48 40.79415 -111.99772 4229 ft 74 kts 175°
2026-05-08 06:48 40.79071 -111.99735 4232 ft 39 kts 175°
2026-05-08 06:48 40.78886 -111.99698 4232 ft 25 kts 160°
2026-05-08 06:49 40.78756 -111.99587 4232 ft 17 kts 141°
2026-05-08 06:49 40.78723 -111.99536 4231 ft 0 kts 118°
2026-05-08 06:49 40.78715 -111.99518 4231 ft 6 kts 116°
2026-05-08 06:50 40.78714 -111.99430 4231 ft 14 kts 83°
2026-05-08 06:50 40.78725 -111.99327 4230 ft 11 kts 82°
2026-05-08 06:50 40.78728 -111.99229 4230 ft 11 kts 89°
2026-05-08 06:50 40.78728 -111.99135 4230 ft 10 kts 88°
2026-05-08 06:51 40.78753 -111.99052 4230 ft 10 kts 26°
2026-05-08 06:51 40.78784 -111.99049 4230 ft 0 kts 355°
2026-05-08 06:51 40.78802 -111.99051 4230 ft 5 kts 354°
2026-05-08 06:52 40.78811 -111.99052 4230 ft 0 kts 355°